CAPE
0 0 0 0 0 0 0 0 0 0 0 0 0 0 1 0 0 4 0 0 0 0
0 0 0 0 0 0 0 0 0 0 0 2 1 0 1 3 2 0 0 3 15 3
0 0 0 0 0 0 0 0 0 1 0 0 5 6 7 6 16 2 0 19 76 18
0 0 0 0 0 0 0 0 2 3 1 4 7 10 9 15 22 18 3 25 78 49
0 0 0 0 0 0 0 0 0 2 7 19 15 13 14 20 21 25 20 37 78 80
0 0 0 0 0 0 2 2 1 0 0 1 2 12 26 24 12 25 35 32 49 64
0 0 1 2 3 4 2 1 1 3 1 2 10 10 23 36 20 36 50 25 39 36
0 0 3 1 2 6 12 13 2 0 6 6 6 8 14 34 30 18 25 52 126 114
0 3 1 4 10 7 7 19 12 3 5 7 8 9 20 16 26 0 22 48 22 133
1 0 6 2 5 2 9 18 3 5 8 5 2 4 21 38 24 37 31 2 0 68
2 2 4 6 3 3 10 4 11 1 4 4 0 8 20 32 40 28 8 17 26 46
8 9 11 3 2 4 3 7 3 6 4 8 5 11 18 10 17 12 5 12 20 19
11 3 8 3 3 2 4 5 6 5 13 4 7 6 6 15 23 9 6 14 17 36
2 4 5 7 3 2 2 3 4 16 15 5 6 3 12 22 12 9 9 7 7 6
CIN
-0 -0 -0 -0 -0 -0 -0 -0 -0 -0 -0 -0 -0 -0 -1 -0 -0 -0 -0 -0 -0 -0
-0 -0 -0 -0 -0 -0 -0 -0 -0 -0 -0 -0 -1 -0 -0 -1 -0 -0 -0 -0 -0 -1
-0 -0 -0 -0 -0 -0 -0 -0 -0 -0 -1 -0 -0 -0 -0 -0 -0 -1 -0 -0 -0 -1
-0 -0 -0 -0 -0 -0 -0 -0 -0 -0 -0 -0 -0 -0 -0 -0 -0 -0 -0 -0 -0 -0
-0 -0 -0 -0 -0 -0 -0 -0 -1 -0 -0 -0 -0 -1 -2 -0 -0 -0 -0 -1 -0 -0
-0 -0 -0 -0 -0 -1 -1 -2 -2 -2 -0 -5 -8 -0 -0 -0 -3 -0 -4 -0 -0 -0
-0 -0 -1 -2 -1 -1 -1 -4 -3 -2 -3 -5 -0 -0 -0 -2 -10 -0 -1 -9 -0 -4
-0 -0 -1 -0 -4 -0 -0 -0 -4 -2 -0 -1 -1 -0 -0 -0 -4 -24 -6 -2 -0 -0
-0 -0 -1 -1 -0 -1 -0 -0 -0 -0 -0 -0 -0 -3 -2 -2 -5 -6 -9 -23 -50 -0
-3 -1 -0 -1 -0 -0 -0 -0 -0 -0 -0 -0 -0 -4 -2 -1 -1 -1 -1 -21 -0 -0
-0 -0 -0 -0 -1 -2 -0 -0 -0 -0 -0 -0 -0 -1 -2 -1 -1 -0 -7 -9 -2 -0
-0 -0 -1 -0 -0 -1 -0 -0 -2 -0 -0 -0 -1 -1 -1 -1 -1 -1 -2 -2 -1 -4
-0 -0 -0 -0 -0 -0 -0 -0 -0 -1 -0 -2 -1 -1 -1 -1 -0 -0 -2 -0 -0 -0
-1 -0 -0 -0 -0 -0 -0 -1 -1 -0 -1 -2 -1 -3 -1 -1 -1 -1 -1 -1 -3 -1
Wind_Speed
43 42 43 43 43 42 41 41 41 41 41 40 41 40 40 40 39 37 38 40 41 41
44 43 43 44 42 41 41 41 42 40 39 39 38 39 40 39 37 37 36 36 35 37
44 43 43 42 42 42 42 43 42 39 39 39 39 39 40 38 35 35 36 35 34 34
44 44 43 43 43 44 44 43 41 41 41 40 37 37 39 36 34 34 34 34 35 35
44 43 43 43 43 43 44 42 42 42 42 40 38 37 36 35 34 34 34 33 35 34
43 44 44 44 44 45 44 44 44 44 43 41 39 39 37 36 35 33 35 34 34 33
45 45 46 48 48 47 44 45 44 43 42 40 39 39 38 35 37 36 33 32 31 33
46 47 47 48 46 43 46 45 44 44 41 40 39 37 34 34 33 34 35 34 32 31
47 46 47 46 46 48 47 46 42 41 38 38 36 35 36 35 31 35 31 36 43 37
46 47 47 49 46 47 45 43 37 36 34 35 32 34 32 29 28 30 32 42 50 38
45 47 47 46 45 43 40 36 32 29 26 30 31 29 28 27 31 38 46 48 44 34
45 45 45 44 42 39 36 33 31 27 29 26 27 25 25 33 39 42 44 41 43 41
41 41 36 36 34 33 30 25 22 15 13 16 18 22 31 40 33 39 39 36 30 47
37 29 27 26 23 19 17 14 11 10 9 10 12 12 17 17 22 35 35 34 35 39
Wind_Direction
324 323 322 320 318 316 315 313 312 309 306 304 302 301 299 297 294 290 288 283 281 280
325 324 322 320 318 317 314 313 311 309 307 305 302 301 298 295 292 292 289 285 282 280
326 324 322 321 318 316 314 313 311 308 307 304 302 300 297 291 289 289 288 285 281 281
326 325 323 321 319 318 316 314 310 308 305 302 299 299 297 290 287 287 287 284 280 278
327 326 325 323 321 320 317 315 312 309 306 303 300 299 296 290 286 286 286 283 279 277
327 326 324 323 321 320 318 316 313 309 305 303 300 298 294 290 287 285 285 283 280 279
327 326 325 324 322 320 318 315 311 308 305 302 299 296 292 288 286 286 283 280 281 277
328 327 325 324 322 319 318 315 312 307 305 302 298 295 290 287 282 282 280 283 278 273
328 327 325 324 323 320 318 316 312 310 305 305 299 295 289 285 282 282 278 275 270 270
329 327 327 326 324 323 321 320 313 310 306 306 301 296 290 282 281 278 278 262 238 256
331 330 330 328 327 325 326 325 322 316 309 308 303 299 292 286 279 274 261 252 259 272
334 334 333 332 330 330 329 328 326 320 318 313 310 304 296 282 269 264 255 262 257 260
337 337 336 335 334 334 334 330 327 313 299 253 244 235 235 246 276 264 262 264 267 243
339 334 331 332 329 320 320 315 303 281 267 252 237 227 218 210 218 266 265 265 262 252